Regional Weather Roundup
Issued by NWS

Home | Current Version | Previous Version | Text Only | Print | Product List | Glossary On
Versions: 1 2 3 4 5 6 7 8 9 10 11 12 13 14 15 16 17 18 19 20 21 22 23 24 25 26 27 28 29 30 31 32 33 34 35 36 37 38 39 40 41 42 43 44 45 46 47 48 49 50
000
ASUS44 KBMX 270710
RWRAL

ALABAMA REGIONAL WEATHER ROUNDUP
NATIONAL WEATHER SERVICE BIRMINGHAM AL
200 AM CDT WED MAY 27 2015

NOTE: "FAIR" INDICATES FEW OR NO CLOUDS BELOW 12,000 FEET
WITH NO SIGNIFICANT WEATHER AND/OR OBSTRUCTIONS TO VISIBILITY.

THE REMARK "TC" DENOTES TEMPERATURE IN DEGREES CELSIUS.

ALZ001>011-014-016>018-020-270800-
NORTH ALABAMA

CITY           SKY/WX    TMP DP  RH WIND       PRES   REMARKS
MUSCLE SHOALS  MOCLDY    70  67  90 S6        30.12F
HUNTSVILLE     CLOUDY    69  66  90 SE7       30.14F
DECATUR        CLOUDY    68  67  96 S10       30.13F
HALEYVILLE     CLOUDY    69  69 100 S8        30.16S FOG
GADSDEN        CLOUDY   N/A N/A N/A CALM      30.16S
$$

ALZ012-013-022-023-030>036-040>044-270800-
WEST CENTRAL ALABAMA

CITY           SKY/WX    TMP DP  RH WIND       PRES   REMARKS
TUSCALOOSA     CLOUDY    72  70  93 S8        30.13F
$$

ALZ015-024>027-033>036-040>044-270800-
CENTRAL ALABAMA

CITY           SKY/WX    TMP DP  RH WIND       PRES   REMARKS
BIRMINGHAM     CLOUDY    70  67  90 S5        30.18F
MONTGOMERY     MOCLDY    68  65  90 E3        30.16F
SHELBY CO ARPT CLOUDY    69  67  93 SE3       30.17F
MAXWELL AFB    CLOUDY    68  67  96 NE3       30.15F
GREENVILLE     CLOUDY    69  66  90 CALM      30.15S
$$

ALZ019-021-028-029-037-038-045>048-270800-
EAST CENTRAL ALABAMA

CITY           SKY/WX    TMP DP  RH WIND       PRES   REMARKS
ANNISTON       CLOUDY    66  64  93 CALM      30.18F
ALEXANDER CITY CLOUDY    67  64  90 CALM      30.18F
AUBURN         CLOUDY    64  63  94 SE5       30.19
$$

ALZ051>064-270800-
SOUTHWEST ALABAMA

CITY           SKY/WX    TMP DP  RH WIND       PRES   REMARKS
MOBILE         CLOUDY    75  74  96 SE8       30.12F
BROOKLEY FIELD CLOUDY    76  74  93 E12       30.12F
EVERGREEN      PTCLDY    69  67  93 CALM      30.15F
$$

ALZ049-050-065>069-270800-
SOUTHEAST ALABAMA

CITY           SKY/WX    TMP DP  RH WIND       PRES   REMARKS
DOTHAN         CLOUDY    68  67  96 E7        30.20S
OZARK          CLOUDY    67  66  97 E3        30.16S
TROY           CLOUDY    66  64  93 NE3       30.16F
EUFAULA        MOCLDY    68  67  96 CALM      30.17S
$$



USA.gov is the U.S. government's official web portal to all federal, state and local government web resources and services.